Location: ??
(35.5052°N, 139.7262°E)
Time: 21:04:16
(UTC+00:00)

deb Kosmos-2227 - Visible Passes

Search period start: 24 January 2022 00:00
Search period end: 03 February 2022 00:00
Orbit: 623 x 676 km, 71.3° (Epoch: 24 January)

Date Brightness Start Highest point End Pass type
(mag) Time Alt. Az. Time Alt. Az. Time Alt. Az.
24 Jan ? 09:14:03 10° S 09:18:45 65° ESE 09:22:23 17° NNE visible
24 Jan ? 10:56:55 10° W 10:59:02 13° NW 11:00:14 12° NW visible
24 Jan ? 19:35:04 54° SSE 19:35:04 54° SSE 19:38:35 10° SSE visible
25 Jan ? 09:41:22 10° SW 09:45:57 47° WNW 09:50:04 13° N visible
25 Jan ? 20:02:58 23° SSW 20:02:58 23° SSW 20:05:06 10° SSW visible
26 Jan ? 08:29:00 10° S 08:33:25 39° ESE 08:37:52 10° NE visible
26 Jan ? 10:09:57 10° WSW 10:13:23 19° WNW 10:16:50 10° NNW visible
27 Jan ? 08:55:43 10° SSW 09:00:29 76° WNW 09:05:16 10° NNE visible
28 Jan ? 09:23:37 10° WSW 09:27:46 29° WNW 09:31:57 10° N visible
29 Jan ? 09:53:18 10° W 09:55:20 12° NW 09:57:22 10° NNW visible
30 Jan ? 08:37:37 10° SW 08:42:12 46° WNW 08:46:48 10° N visible
31 Jan ? 09:06:13 10° WSW 09:09:36 19° WNW 09:13:00 10° NNW visible
